Find Starlink 30295

NORAD ID: 57683 Int'l Des: 2023-124 Owner: SPXS Country: US Constellation: starlink operational
LEOCIRCULAR

实时位置

正在加载3D地球...

关于 Starlink 30295

正在加载描述...

即将过境

Passes for default location (London). Set your location on the main map for personalized predictions.

高度历史

Loading altitude history...

两行轨道根数

1 57683U 23124W 26126.75444495 .00001954 00000-0 78055-4 0 9998
2 57683 53.1603 297.3611 0001012 59.9658 300.1443 15.30214232152459
Epoch: May 6, 2026 • Age: 8 hours

当前状态

高度 481.0 km
速度 7.63 km/s
星下点 52.75°N, 114.72°E
发射日期 Aug 22, 2023
运行时间 2.7 years
类型 internet

技术详情

分类 Payload
质量 730.00 kg
干质量 700.00 kg
总质量 730.00 kg
长度 0.30 m
直径 4.10 m
跨度 29.00 m
形状 Box + pan
制造商 SPXS
平台类型 Starlink V2M
阶段状态 In Orbit
所有者/国家 SPXS/US

Most Searched